Flag for Germany Weather past 2 weeks in Ludwigsburg, Baden-Württemberg, Germany

Now
55 °F

Clear.


Feels Like: 55 °F
Forecast: 43 / 73 °F
Wind: 2 mph from North

Location: Stuttgart-Echterdingen

Current Time: May 30, 2015 at 3:09:35 AM

Latest Report: May 30, 2015 at 2:50 AM


Visibility: 10 mi

Pressure: 29.92 "Hg

Humidity: 88%

Dew point: 52 °F

Location of LudwigsburgLocation

Historic Weather in Ludwigsburg — Graph

°F

Ludwigsburg temperature yesterday

Maximum temperature yesterday: 72 °F (at 2:50 PM)
Minimum temperature yesterday: 52 °F (at 6:20 AM)
Average temperature yesterday: 61 °F

Past Weeks' High & Low Weather Summary

 TemperatureHumidityPressure
High73 °F (May 18, 5:20 PM)100% (May 15, 4:20 AM)30.30 "Hg (May 15, 4:20 AM)
Low37 °F (May 22, 5:50 AM)25% (May 18, 6:20 PM)29.74 "Hg (May 18, 6:20 PM)
Average56 °F70%30.06 "Hg
* Reported May 15 1:20 AM — May 30 1:50 AM, Ludwigsburg, Weather by CustomWeather, © 2015

Note: Actual official high and low records may vary slightly from our data, if they occured in-between our weather recording intervals... More about our weather records

Advertising

Ludwigsburg weather history for previous 24 hours

 ConditionsComfort  
Time TempWeatherWind HumidityBarometerVisibility
1:50 AM
Sat, May 30
55 °FClear.No wind88%29.92 "Hg10 mi
1:20 AM55 °FClear.2 mph88%29.92 "Hg10 mi
12:50 AM55 °FPassing clouds.2 mph88%29.92 "HgN/A
12:20 AM55 °FPassing clouds.3 mph88%29.92 "HgN/A
11:50 PM
Fri, May 29
57 °FPassing clouds.2 mph88%29.92 "HgN/A
11:20 PM57 °FPartly cloudy.3 mph88%29.92 "HgN/A
10:20 PM59 °FScattered showers. Passing clouds.3 mph82%29.89 "HgN/A
9:50 PM59 °FSprinkles. Broken clouds.3 mph82%29.89 "HgN/A
9:20 PM59 °FScattered showers. Partly sunny.6 mph82%29.89 "HgN/A
8:50 PM61 °FSprinkles. Broken clouds.9 mph77%29.86 "HgN/A
8:20 PM63 °FPartly sunny.3 mph73%29.86 "HgN/A
7:50 PM63 °FScattered showers. Scattered clouds.8 mph73%29.86 "HgN/A
7:20 PM64 °FScattered clouds.6 mph68%29.86 "HgN/A
6:50 PM64 °FScattered clouds.8 mph68%29.83 "HgN/A
6:20 PM64 °FScattered clouds.13 mph73%29.83 "HgN/A
5:50 PM64 °FScattered clouds.13 mph73%29.83 "HgN/A
5:20 PM66 °FSprinkles. Scattered clouds.13 mph64%29.83 "HgN/A
4:50 PM68 °FScattered clouds.8 mph60%29.80 "HgN/A
4:20 PM68 °FScattered clouds.12 mph64%29.83 "HgN/A
3:50 PM68 °FScattered showers. Scattered clouds.12 mph49%29.83 "HgN/A
3:20 PM70 °FSprinkles. Scattered clouds.12 mph50%29.83 "HgN/A
2:50 PM72 °FScattered clouds.14 mph47%29.86 "HgN/A
2:20 PM70 °FBroken clouds.9 mph53%29.86 "HgN/A
1:50 PM68 °FBroken clouds.6 mph64%29.89 "HgN/A
1:20 PM64 °FBroken clouds.5 mph64%29.89 "HgN/A
12:50 PM66 °FPartly sunny.7 mph60%29.89 "HgN/A
12:20 PM66 °FBroken clouds.5 mph60%29.92 "HgN/A
11:50 AM64 °FSprinkles. Broken clouds.3 mph68%29.92 "HgN/A
11:20 AM63 °FPartly sunny.5 mph73%29.92 "HgN/A
10:50 AM63 °FPartly sunny.2 mph68%29.95 "HgN/A
10:20 AM61 °FPartly sunny.3 mph72%29.95 "HgN/A
9:50 AM63 °FPartly sunny.3 mph68%29.95 "HgN/A
9:20 AM59 °FScattered clouds.2 mph72%29.95 "HgN/A
8:50 AM59 °FScattered clouds.5 mph77%29.95 "HgN/A
8:20 AM57 °FScattered clouds.3 mph82%29.95 "HgN/A
7:50 AM55 °FScattered clouds.3 mph88%29.95 "HgN/A
7:20 AM54 °FPartly sunny.2 mph94%29.95 "HgN/A
6:50 AM54 °FSprinkles. Partly sunny.1 mph94%29.95 "HgN/A
6:20 AM52 °FPassing clouds.3 mph94%29.95 "HgN/A
5:50 AM54 °FRain showers. Partly cloudy.3 mph94%29.95 "HgN/A
5:20 AM54 °FScattered showers. Partly cloudy.3 mph88%29.95 "HgN/A
4:50 AM55 °FPartly cloudy.3 mph82%29.95 "HgN/A
4:20 AM55 °FPassing clouds.5 mph77%29.98 "HgN/A
3:50 AM57 °FPassing clouds.2 mph72%29.98 "HgN/A
3:20 AM57 °FPartly cloudy.3 mph72%29.98 "HgN/A
Weather by CustomWeather, © 2015

See weather overviewHow to use our weather pages